• Join FlightAware (Why Join?)
  • Login
  • US Flag 
07:14AM EDT


 

Airport Tracker/Info


-or-


 

Live Flight TrackerFlight Track Log ✈ SKW4771 ✈ 11-May-2012 ✈ KLAX - KSFO

Flight Track Log - Related Links

Times and Time Zones

All times are in EDT time to prevent confusion due to time zone crossing. See the SKW4771 flight status page for this flight to view local times or setup timezone preferences in your user account.

Time Position Orientation Groundspeed Altitude Reporting Facility
EDT Latitude Longitude Course Direction KTS MPH feet Rate Location/Type
10:53AM 33.9500 -118.4500 259° West 160 184 1,500  Level Southern California TRACON
10:54AM 33.9389 -118.5175 261° West 205 236 4,000 2,820 Climbing Los Angeles Center
10:55AM 33.9267 -118.6072 262° West 235 270 7,100 3,240 Climbing Los Angeles Center
10:56AM 33.9164 -118.6944 261° West 265 305 10,500 2,640 Climbing Los Angeles Center
10:57AM 33.9039 -118.7917 287° West 279 321 12,400 2,160 Climbing Los Angeles Center
10:58AM 33.9289 -118.8900 306° West 293 337 14,900 2,220 Climbing Los Angeles Center
10:59AM 33.9772 -118.9694 310° West 298 343 16,900 2,160 Climbing Los Angeles Center
11:00AM 34.0397 -119.0592 307° West 324 373 19,300 2,280 Climbing Los Angeles Center
11:01AM 34.1000 -119.1542 309° West 345 397 21,500 2,100 Climbing Los Angeles Center
11:02AM 34.1664 -119.2519 308° West 359 413 23,600 1,800 Climbing Los Angeles Center
11:03AM 34.2367 -119.3600 308° West 370 426 25,200 1,740 Climbing Los Angeles Center
11:04AM 34.2967 -119.4528 309° West 377 434 27,100 1,380 Climbing Los Angeles Center
11:05AM 34.3750 -119.5692 307° West 384 442 28,000 420 Climbing Los Angeles Center
11:06AM 34.4447 -119.6803 310° West 406 467 28,000  Level Los Angeles Center
11:07AM 34.5189 -119.7869 319° Northwest 417 480 28,000  Level Los Angeles Center
11:08AM 34.6097 -119.8817 318° Northwest 417 480 28,000  Level Los Angeles Center
11:09AM 34.6967 -119.9767 319° Northwest 417 480 28,000  Level Los Angeles Center
11:10AM 34.7853 -120.0719 319° Northwest 422 486 28,000  Level Los Angeles Center
11:11AM 34.8742 -120.1672 317° Northwest 428 493 28,000  Level Los Angeles Center
11:12AM 34.9606 -120.2653 318° Northwest 423 487 28,000  Level Los Angeles Center
11:13AM 35.0469 -120.3608 317° Northwest 423 487 28,000  Level Los Angeles Center
11:15AM 35.2172 -120.5544 318° Northwest 435 501 28,000  Level Oakland Center
11:16AM 35.3136 -120.6606 317° Northwest 425 489 28,000  Level Oakland Center
11:17AM 35.3994 -120.7572 318° Northwest 420 483 28,000  Level Oakland Center
11:18AM 35.4869 -120.8539 317° Northwest 420 483 28,000  Level Oakland Center
11:19AM 35.5725 -120.9506 317° Northwest 420 483 28,000  Level Oakland Center
11:20AM 35.6561 -121.0478 319° Northwest 420 483 28,000 -60 Level Oakland Center
11:21AM 35.7436 -121.1425 317° Northwest 420 483 27,900  Descending Oakland Center
11:22AM 35.8289 -121.2400 316° Northwest 420 483 28,000  Climbing Oakland Center
11:23AM 35.9119 -121.3375 318° Northwest 420 483 28,000  Level Oakland Center
11:24AM 35.9972 -121.4331 318° Northwest 420 483 28,000  Level Oakland Center
11:25AM 36.0844 -121.5311 324° Northwest 420 483 28,000  Level Oakland Center
11:26AM 36.1778 -121.6167 334° Northwest 420 483 28,000  Level Oakland Center
11:27AM 36.2839 -121.6819 334° Northwest 420 483 28,000 -480 Level Oakland Center
11:28AM 36.3897 -121.7475 334° Northwest 420 483 27,100 -1,020 Descending Oakland Center
11:29AM 36.4500 -121.7833 335° Northwest 406 467 26,300 -1,920 Descending Northern Cal TRACON
11:30AM 36.5667 -121.8500 333° Northwest 423 487 23,900 -2,520 Descending Northern Cal TRACON
11:32AM 36.7500 -121.9667 345° North 411 473 19,100 -2,520 Descending Northern Cal TRACON
11:33AM 36.8500 -122.0000 351° North 369 425 16,600 -2,220 Descending Northern Cal TRACON
11:34AM 36.9333 -122.0167 352° North 335 386 14,900 -1,980 Descending Northern Cal TRACON
11:35AM 37.0333 -122.0333 342° North 306 352 12,900 -1,860 Descending Northern Cal TRACON
11:36AM 37.1167 -122.0667 349° North 292 336 11,200 -1,260 Descending Northern Cal TRACON
11:38AM 37.2500 -122.1000 310° West 235 270 9,200 -1,080 Descending Northern Cal TRACON
11:39AM 37.2833 -122.1500 349° North 234 269 8,200 -1,320 Descending Northern Cal TRACON
11:40AM 37.3500 -122.1667 360° North 230 265 6,700 -1,200 Descending Northern Cal TRACON
11:40AM 37.4000 -122.1667 345° North 216 249 6,000 -900 Descending Northern Cal TRACON
11:41AM 37.4500 -122.1833 349° North 220 253 5,000 -1,080 Descending Northern Cal TRACON
11:42AM 37.5167 -122.2000 310° West 209 241 3,900 -1,320 Descending Northern Cal TRACON
11:43AM 37.5500 -122.2500 322° Northwest 200 230 2,500 -1,320 Descending Northern Cal TRACON
11:44AM 37.5833 -122.2833 302° West 132 152 1,500 -900 Descending Northern Cal TRACON
11:45AM 37.6000 -122.3167 302° West 127 146 700 -840 Descending Northern Cal TRACON